Flag for Netherlands Weather past 2 weeks in Groningen, Netherlands

Now
52 °F

Cool.


Feels Like: 48 °F
Forecast: 50 / 67 °F
Wind: 12 mph from Southwest

Location: Groningen Eelde Airport

Current Time: May 4, 2015 at 5:06:03 AM

Latest Report: May 4, 2015 at 4:25 AM


Visibility: N/A

Pressure: 29.59 "Hg

Humidity: 88%

Dew point: 48 °F

Location of GroningenLocation

Historic Weather in Groningen — Graph

°F

Groningen temperature yesterday

Maximum temperature yesterday: 63 °F (at 1:55 PM)
Minimum temperature yesterday: 41 °F (at 1:25 AM)
Average temperature yesterday: 52 °F

Past Weeks' High & Low Weather Summary

 TemperatureHumidityPressure
High64 °F (Apr 24, 2:25 PM)100% (Apr 19, 6:25 AM)30.51 "Hg (Apr 19, 6:25 AM)
Low27 °F (Apr 28, 4:55 AM)39% (Apr 20, 3:25 PM)29.47 "Hg (May 3, 7:25 PM)
Average47 °F78%29.97 "Hg
* Reported Apr 19 3:25 AM — May 4 3:55 AM, Groningen, Weather by CustomWeather, © 2015

Note: Actual official high and low records may vary slightly from our data, if they occured in-between our weather recording intervals... More about our weather records

Advertising

Groningen weather history for previous 24 hours

 ConditionsComfort  
Time TempWeatherWind HumidityBarometerVisibility
3:55 AM
Mon, May 4
52 °FPartly cloudy.14 mph94%29.59 "HgN/A
3:25 AM54 °FClear.14 mph88%29.59 "HgN/A
2:55 AM54 °FClear.14 mph88%29.59 "HgN/A
2:25 AM52 °FCool.14 mph94%29.56 "HgN/A
1:55 AM54 °FPassing clouds.15 mph88%29.56 "HgN/A
1:25 AM54 °FPassing clouds.15 mph88%29.56 "HgN/A
12:55 AM54 °FPassing clouds.10 mph94%29.56 "HgN/A
12:25 AM54 °FCool.14 mph94%29.53 "HgN/A
11:55 PM
Sun, May 3
55 °FCool.15 mph88%29.53 "HgN/A
11:25 PM57 °FPassing clouds.15 mph88%29.53 "HgN/A
10:55 PM57 °FOvercast.15 mph88%29.53 "HgN/A
10:25 PM57 °FMostly cloudy.15 mph88%29.50 "HgN/A
9:55 PM59 °FBroken clouds.16 mph88%29.50 "HgN/A
9:25 PM59 °FBroken clouds.14 mph94%29.47 "HgN/A
8:55 PM59 °FDrizzle. Broken clouds.13 mph94%29.47 "HgN/A
8:25 PM59 °FLight rain. Broken clouds.12 mph94%29.47 "Hg5 mi
7:55 PM59 °FLight rain. Broken clouds.12 mph94%29.47 "Hg4 mi
7:25 PM57 °FBroken clouds.12 mph100%29.47 "Hg6 mi
6:55 PM57 °FBroken clouds.10 mph100%29.50 "Hg4 mi
6:25 PM57 °FFog.12 mph100%29.50 "Hg2 mi
5:55 PM57 °FLight rain. Broken clouds.10 mph94%29.50 "Hg4 mi
5:25 PM57 °FDrizzle. Mostly cloudy.10 mph94%29.50 "Hg2 mi
4:55 PM59 °FDrizzle. Mostly cloudy.8 mph82%29.53 "HgN/A
4:25 PM61 °FLight rain. Mostly cloudy.15 mph72%29.50 "HgN/A
3:55 PM63 °FOvercast.13 mph64%29.53 "HgN/A
3:25 PM63 °FOvercast.10 mph64%29.53 "HgN/A
2:55 PM63 °FLight rain. Mostly cloudy.10 mph59%29.53 "HgN/A
2:25 PM63 °FScattered clouds.13 mph59%29.56 "HgN/A
1:55 PM63 °FPassing clouds.13 mph56%29.56 "HgN/A
1:25 PM61 °FPartly sunny.12 mph55%29.59 "HgN/A
12:55 PM61 °FClear.15 mph52%29.59 "HgN/A
12:25 PM61 °FClear.13 mph48%29.59 "HgN/A
11:55 AM61 °FClear.9 mph48%29.62 "HgN/A
11:25 AM57 °FClear.10 mph55%29.65 "HgN/A
10:55 AM57 °FClear.10 mph55%29.65 "HgN/A
10:25 AM54 °FClear.12 mph63%29.68 "HgN/A
9:55 AM52 °FClear.12 mph62%29.68 "HgN/A
9:25 AM50 °FClear.10 mph67%29.71 "HgN/A
8:55 AM48 °FCool.12 mph66%29.71 "HgN/A
8:25 AM45 °FClear.10 mph76%29.71 "HgN/A
7:55 AM43 °FClear.12 mph76%29.71 "HgN/A
7:25 AM43 °FClear.12 mph76%29.74 "HgN/A
6:55 AM41 °FQuite cool.9 mph81%29.77 "HgN/A
6:25 AM41 °FClear.9 mph81%29.74 "HgN/A
5:55 AM41 °FClear.9 mph81%29.77 "HgN/A
5:25 AM41 °FClear.9 mph81%29.77 "HgN/A
Weather by CustomWeather, © 2015

See weather overviewHow to use our weather pages